TimeEST,TemperatureF,Dew PointF,Humidity,Sea Level PressureIn,VisibilityMPH,Wind Direction,Wind SpeedMPH,Gust SpeedMPH,PrecipitationIn,Events,Conditions,WindDirDegrees,DateUTC
12:15 AM,32.9,32.9,100,30.36,10.0,Calm,Calm,-,N/A,,Clear,0,2013-12-11 05:15:00
12:35 AM,32.0,32.0,100,30.36,10.0,Calm,Calm,-,N/A,,Clear,0,2013-12-11 05:35:00
12:55 AM,31.8,31.8,100,30.36,10.0,Calm,Calm,-,N/A,,Clear,0,2013-12-11 05:55:00
1:35 AM,31.3,31.3,100,30.35,10.0,Calm,Calm,-,N/A,,Clear,0,2013-12-11 06:35:00
1:55 AM,30.6,30.6,100,30.35,7.0,Calm,Calm,-,N/A,,Clear,0,2013-12-11 06:55:00
2:15 AM,30.2,30.2,100,30.36,7.0,Calm,Calm,-,N/A,,Clear,0,2013-12-11 07:15:00
2:35 AM,30.2,30.2,100,30.37,7.0,Calm,Calm,-,N/A,,Clear,0,2013-12-11 07:35:00
2:55 AM,30.2,30.2,100,30.36,10.0,Calm,Calm,-,N/A,,Clear,0,2013-12-11 07:55:00
3:15 AM,29.7,29.7,100,30.37,7.0,Calm,Calm,-,N/A,,Clear,0,2013-12-11 08:15:00
3:35 AM,29.8,29.8,100,30.37,10.0,Calm,Calm,-,N/A,,Clear,0,2013-12-11 08:35:00
3:55 AM,29.8,29.8,100,30.37,10.0,Calm,Calm,-,N/A,,Clear,0,2013-12-11 08:55:00
4:15 AM,29.1,29.1,100,30.38,7.0,Calm,Calm,-,N/A,,Clear,0,2013-12-11 09:15:00
4:35 AM,29.3,29.3,100,30.38,10.0,Calm,Calm,-,N/A,,Clear,0,2013-12-11 09:35:00
4:55 AM,29.1,29.1,100,30.39,10.0,Calm,Calm,-,N/A,,Clear,0,2013-12-11 09:55:00
5:15 AM,28.6,28.6,100,30.39,10.0,Calm,Calm,-,N/A,,Clear,0,2013-12-11 10:15:00
5:35 AM,28.2,28.2,100,30.40,10.0,Calm,Calm,-,N/A,,Clear,0,2013-12-11 10:35:00
5:55 AM,28.6,28.6,100,30.41,10.0,Calm,Calm,-,N/A,,Clear,0,2013-12-11 10:55:00
6:15 AM,28.4,28.4,100,30.41,10.0,Calm,Calm,-,N/A,,Clear,0,2013-12-11 11:15:00
6:35 AM,28.0,28.0,100,30.42,10.0,Calm,Calm,-,N/A,,Clear,0,2013-12-11 11:35:00
6:55 AM,27.9,27.9,100,30.43,10.0,Calm,Calm,-,N/A,,Clear,0,2013-12-11 11:55:00
7:15 AM,27.5,27.5,100,30.44,10.0,Calm,Calm,-,N/A,,Clear,0,2013-12-11 12:15:00
7:35 AM,27.5,27.5,100,30.44,10.0,Calm,Calm,-,N/A,,Clear,0,2013-12-11 12:35:00
7:55 AM,28.2,28.2,100,30.44,10.0,Calm,Calm,-,N/A,,Clear,0,2013-12-11 12:55:00
8:15 AM,30.4,30.0,99,30.45,10.0,Calm,Calm,-,N/A,,Clear,0,2013-12-11 13:15:00
8:35 AM,32.9,31.6,95,30.45,10.0,Calm,Calm,-,N/A,,Clear,0,2013-12-11 13:35:00
8:55 AM,35.6,29.1,77,30.46,10.0,North,3.5,-,N/A,,Clear,10,2013-12-11 13:55:00
9:15 AM,37.4,29.1,72,30.47,10.0,NNE,3.5,-,N/A,,Clear,20,2013-12-11 14:15:00
9:35 AM,39.4,28.2,64,30.48,10.0,North,4.6,-,N/A,,Clear,360,2013-12-11 14:35:00
9:55 AM,41.4,28.2,60,30.48,10.0,NNE,5.8,-,N/A,,Clear,30,2013-12-11 14:55:00
10:15 AM,42.1,26.6,54,30.48,10.0,North,4.6,-,N/A,,Clear,10,2013-12-11 15:15:00
10:35 AM,43.7,27.0,52,30.47,10.0,NE,4.6,-,N/A,,Clear,40,2013-12-11 15:35:00
10:55 AM,44.6,26.4,49,30.46,10.0,Calm,Calm,-,N/A,,Clear,0,2013-12-11 15:55:00
11:15 AM,44.8,23.7,44,30.46,10.0,Calm,Calm,-,N/A,,Clear,0,2013-12-11 16:15:00
11:35 AM,45.1,26.4,48,30.44,10.0,Calm,Calm,-,N/A,,Clear,0,2013-12-11 16:35:00
11:55 AM,46.4,27.5,48,30.42,10.0,Calm,Calm,-,N/A,,Clear,0,2013-12-11 16:55:00
12:15 PM,47.7,27.7,46,30.41,10.0,Calm,Calm,-,N/A,,Clear,0,2013-12-11 17:15:00
12:35 PM,47.3,26.2,44,30.40,10.0,Calm,Calm,-,N/A,,Clear,0,2013-12-11 17:35:00
12:55 PM,47.5,26.6,44,30.39,10.0,SE,3.5,-,N/A,,Clear,130,2013-12-11 17:55:00
1:15 PM,48.7,27.0,43,30.39,10.0,Calm,Calm,-,N/A,,Clear,0,2013-12-11 18:15:00
1:35 PM,49.1,27.7,44,30.38,10.0,Calm,Calm,-,N/A,,Clear,0,2013-12-11 18:35:00
1:55 PM,49.8,28.2,43,30.37,10.0,WSW,3.5,-,N/A,,Clear,240,2013-12-11 18:55:00
2:15 PM,49.3,27.0,42,30.36,10.0,Calm,Calm,-,N/A,,Clear,0,2013-12-11 19:15:00
2:35 PM,49.8,27.5,42,30.36,10.0,Calm,Calm,-,N/A,,Clear,0,2013-12-11 19:35:00
2:55 PM,49.8,26.6,41,30.36,10.0,Calm,Calm,-,N/A,,Clear,0,2013-12-11 19:55:00
3:15 PM,49.8,28.0,43,30.35,10.0,SW,3.5,-,N/A,,Clear,230,2013-12-11 20:15:00
3:35 PM,49.5,27.3,42,30.35,10.0,Calm,Calm,-,N/A,,Clear,0,2013-12-11 20:35:00
3:55 PM,49.3,27.5,43,30.35,10.0,Calm,Calm,-,N/A,,Clear,0,2013-12-11 20:55:00
4:15 PM,49.1,29.3,46,30.35,10.0,Calm,Calm,-,N/A,,Clear,0,2013-12-11 21:15:00
4:35 PM,47.5,28.8,48,30.34,10.0,Calm,Calm,-,N/A,,Clear,0,2013-12-11 21:35:00
4:55 PM,43.9,30.2,59,30.34,10.0,Calm,Calm,-,N/A,,Clear,0,2013-12-11 21:55:00
5:15 PM,41.7,31.8,68,30.34,10.0,Calm,Calm,-,N/A,,Clear,0,2013-12-11 22:15:00
5:35 PM,40.1,33.1,76,30.34,10.0,Calm,Calm,-,N/A,,Clear,0,2013-12-11 22:35:00
5:55 PM,38.8,35.6,88,30.35,10.0,Calm,Calm,-,N/A,,Clear,0,2013-12-11 22:55:00
6:15 PM,37.8,35.2,91,30.34,10.0,Calm,Calm,-,N/A,,Clear,0,2013-12-11 23:15:00
6:35 PM,37.4,34.9,91,30.34,10.0,Calm,Calm,-,N/A,,Clear,0,2013-12-11 23:35:00
6:55 PM,37.9,34.7,88,30.34,10.0,Calm,Calm,-,N/A,,Clear,0,2013-12-11 23:55:00
7:15 PM,36.5,34.7,93,30.35,10.0,Calm,Calm,-,N/A,,Clear,0,2013-12-12 00:15:00
7:35 PM,35.6,34.2,94,30.35,10.0,Calm,Calm,-,N/A,,Clear,0,2013-12-12 00:35:00
7:55 PM,35.6,34.9,97,30.34,10.0,Calm,Calm,-,N/A,,Clear,0,2013-12-12 00:55:00
8:15 PM,36.7,34.9,93,30.34,10.0,Calm,Calm,-,N/A,,Clear,0,2013-12-12 01:15:00
8:35 PM,36.7,35.1,94,30.34,10.0,Calm,Calm,-,N/A,,Clear,0,2013-12-12 01:35:00
8:55 PM,37.4,34.9,91,30.33,10.0,Calm,Calm,-,N/A,,Clear,0,2013-12-12 01:55:00
9:15 PM,37.4,35.6,93,30.33,10.0,Calm,Calm,-,N/A,,Clear,0,2013-12-12 02:15:00
9:35 PM,36.0,34.9,96,30.33,10.0,Calm,Calm,-,N/A,,Clear,0,2013-12-12 02:35:00
9:55 PM,35.2,34.2,96,30.33,10.0,Calm,Calm,-,N/A,,Clear,0,2013-12-12 02:55:00
10:15 PM,35.1,34.3,97,30.32,10.0,Calm,Calm,-,N/A,,Clear,0,2013-12-12 03:15:00
10:35 PM,35.6,34.5,96,30.33,10.0,Calm,Calm,-,N/A,,Clear,0,2013-12-12 03:35:00
10:55 PM,35.2,34.7,98,30.33,10.0,Calm,Calm,-,N/A,,Clear,0,2013-12-12 03:55:00
11:15 PM,34.7,34.2,98,30.33,10.0,Calm,Calm,-,N/A,,Clear,0,2013-12-12 04:15:00
11:35 PM,34.0,33.8,99,30.32,10.0,Calm,Calm,-,N/A,,Clear,0,2013-12-12 04:35:00
11:55 PM,33.3,32.9,99,30.32,10.0,Calm,Calm,-,N/A,,Clear,0,2013-12-12 04:55:00